Location: Newark
(39.6867°N, 100.6772°W)
Time: 07:57:38
(UTC+00:00)

Vanguard 1 Rocket - Pass Details

Date: 26 October 2019
Orbit: 651 x 4225 km, 34.3° (Epoch: 14 November)

Event Time Altitude Azimuth Distance (km) Brightness Sun altitude
Rises 12:54:02 0° 183° (S) 3,831 10.8 -2.8°
Reaches altitude 10° 12:57:42 10° 161° (SSE) 3,327 10.8 -2.1°
Maximum altitude 13:02:24 16° 127° (SE) 3,492 11.7 -1.2°
Drops below altitude 10° 13:08:44 10° 95° (E) 4,741 13.0 0.0°
Sets 13:15:57 0° 78° (ENE) 6,590 13.0 1.3°
